Wind_Speed
20 15 11 8 16 11 16 16 14 18 16 20 14 7 15 27 21 22 21 16 12 9 4 5 5 2 1 1 3 5 7 9
22 20 18 18 14 21 21 19 17 16 15 14 16 17 9 13 15 20 21 11 11 11 7 5 7 6 4 3 4 9 9 10
26 20 17 15 13 15 25 23 17 18 19 20 19 19 25 35 33 20 16 12 8 10 10 6 11 8 6 7 10 13 13 11
22 14 18 20 17 21 32 21 16 15 14 19 23 30 21 20 10 5 8 9 5 6 9 8 10 10 11 13 13 16 15 13
25 21 17 6 7 23 28 18 19 15 17 24 19 21 21 18 10 8 8 8 7 7 11 12 13 13 14 14 16 16 18 17
27 21 17 16 18 15 19 21 19 17 22 19 24 19 20 21 12 17 12 11 9 9 11 11 11 12 13 15 16 18 20 21
29 26 21 23 17 26 27 21 22 22 23 23 27 13 14 9 19 25 14 12 11 8 11 14 13 15 16 17 19 21 23 23
30 36 30 30 23 25 23 22 19 20 26 28 21 14 7 7 20 18 15 12 11 10 12 15 14 17 16 17 20 22 23 24
30 35 35 30 21 28 30 30 27 24 23 25 24 21 16 14 7 7 11 14 17 14 13 14 16 18 19 21 22 22 24 24
29 34 37 29 23 20 30 36 25 27 31 26 25 26 19 15 21 21 18 20 25 22 16 17 19 20 20 21 22 22 22 22
24 33 34 29 22 21 20 22 21 25 30 34 32 32 28 28 28 31 30 18 19 17 20 20 21 21 19 22 23 23 22 22
22 28 36 35 31 22 21 27 29 31 31 26 27 34 36 33 30 20 19 15 17 19 21 23 25 25 21 23 23 24 23 24
28 23 36 37 33 30 28 31 31 33 35 33 34 37 40 41 42 34 30 16 17 20 22 21 24 28 26 24 25 25 23 25
37 31 34 35 34 33 36 33 37 38 40 36 35 40 43 46 36 32 31 25 26 25 23 25 28 29 31 29 30 29 27 27
44 42 41 41 41 43 43 41 43 41 42 45 47 40 37 27 32 34 28 29 27 26 27 29 30 31 32 32 32 32 31 29
41 53 50 44 43 45 48 49 45 50 24 36 32 29 25 21 23 27 29 30 33 32 30 31 32 33 32 32 33 33 32 29
28 30 54 42 35 28 28 36 43 50 9 18 14 21 19 20 22 23 26 29 30 31 34 34 35 35 35 35 34 31 30 28
20 21 22 20 29 26 28 37 46 25 6 10 16 21 25 27 29 28 30 31 32 32 32 34 35 35 36 35 34 32 31 29
10 5 10 13 14 17 16 19 4 8 17 17 21 26 30 32 31 31 31 32 33 33 31 32 36 35 34 32 32 33 30 28
Wind_Direction
208 204 240 261 254 238 249 236 265 288 308 312 295 307 339 332 349 341 331 336 349 332 207 175 198 185 187 259 299 314 313 308
184 192 203 231 269 243 238 245 255 291 307 326 339 5 349 340 334 350 326 328 334 342 307 205 197 207 199 223 273 284 286 291
182 203 226 237 267 264 220 230 250 287 313 327 339 340 329 321 308 312 310 296 320 325 318 268 234 248 254 277 274 276 281 286
200 206 221 222 249 287 227 223 236 267 303 307 314 314 339 12 1 247 317 319 296 302 289 269 242 237 252 268 273 283 289 293
198 205 229 249 261 287 225 227 226 269 289 302 298 323 327 348 359 336 314 331 326 289 275 260 254 253 258 271 282 288 289 288
203 201 215 218 241 238 209 227 227 254 275 289 286 312 306 323 334 323 298 313 333 310 288 280 258 262 269 271 275 282 289 292
215 205 213 214 228 240 227 220 240 253 268 274 279 300 309 274 310 320 299 315 305 322 281 271 264 270 275 280 280 280 283 289
249 215 220 227 239 236 230 228 244 261 261 253 265 275 303 315 297 304 319 296 304 311 280 270 273 274 280 286 290 287 285 285
245 221 221 228 237 235 234 232 237 250 260 253 263 286 307 293 306 312 309 324 327 301 276 277 274 280 288 292 297 298 291 285
249 215 222 229 237 262 237 243 230 254 255 271 273 282 287 247 301 299 274 300 316 294 288 290 285 289 294 298 303 304 303 297
252 214 217 222 233 238 235 271 245 264 266 270 278 279 278 280 287 279 270 292 295 298 292 293 289 288 294 296 297 299 300 297
247 222 217 217 224 234 246 249 263 264 267 262 274 285 292 296 306 266 254 272 282 292 287 284 285 289 290 286 291 295 296 291
241 231 220 218 227 232 241 246 253 260 267 269 272 281 286 285 290 287 303 307 304 281 277 280 286 288 288 288 288 289 286 283
240 234 228 224 228 238 243 249 246 251 256 263 270 272 275 280 277 281 279 290 286 279 276 277 275 274 278 280 282 287 283 280
235 238 237 229 231 237 239 248 251 253 255 262 261 264 266 265 246 263 279 278 282 284 283 277 275 277 279 277 278 282 278 277
248 238 236 240 239 243 243 257 244 253 264 271 263 269 264 300 275 280 280 282 279 282 287 289 289 287 285 282 280 279 276 275
264 245 238 244 239 260 272 245 238 241 236 275 293 287 286 288 281 271 274 281 290 294 293 291 290 292 291 286 282 281 276 277
267 249 252 262 260 268 265 245 245 223 221 265 289 292 289 286 284 284 282 281 283 284 284 285 284 286 287 285 285 283 281 278
274 346 319 258 277 287 280 326 302 287 257 264 278 282 283 283 282 282 283 285 285 282 280 281 280 281 281 281 283 285 283 279
Height
5904 5910 5914 5915 5914 5918 5919 5920 5921 5920 5920 5918 5920 5919 5918 5915 5910 5909 5906 5904 5905 5906 5905 5904 5903 5902 5904 5903 5901 5902 5901 5901
5902 5902 5906 5908 5914 5914 5915 5916 5915 5914 5913 5916 5917 5914 5916 5915 5912 5909 5908 5904 5903 5902 5902 5900 5900 5899 5900 5901 5900 5900 5900 5899
5897 5900 5904 5906 5906 5909 5911 5912 5912 5910 5910 5910 5911 5910 5910 5907 5907 5910 5907 5906 5904 5901 5902 5901 5897 5899 5897 5900 5899 5899 5898 5897
5895 5898 5899 5899 5901 5905 5905 5909 5910 5909 5910 5907 5906 5906 5910 5901 5897 5904 5905 5906 5904 5901 5902 5902 5899 5899 5898 5898 5897 5897 5897 5895
5891 5895 5897 5897 5897 5899 5901 5905 5906 5906 5908 5906 5906 5905 5904 5906 5905 5905 5906 5905 5902 5901 5902 5900 5898 5896 5896 5896 5895 5895 5894 5893
5887 5891 5892 5890 5895 5896 5897 5899 5900 5902 5903 5905 5905 5907 5904 5905 5906 5907 5904 5903 5899 5897 5897 5897 5895 5895 5893 5893 5893 5892 5891 5890
5884 5885 5886 5886 5887 5891 5892 5893 5894 5899 5900 5902 5903 5906 5906 5907 5906 5906 5904 5901 5898 5895 5896 5894 5891 5891 5889 5889 5889 5887 5886 5885
5874 5878 5880 5881 5883 5884 5887 5888 5890 5891 5894 5895 5900 5903 5904 5905 5905 5902 5901 5899 5896 5893 5893 5890 5887 5887 5886 5885 5883 5881 5879 5878
5868 5872 5874 5877 5879 5879 5881 5883 5884 5885 5887 5890 5893 5897 5898 5899 5898 5896 5897 5895 5890 5890 5888 5886 5884 5882 5880 5879 5878 5876 5873 5871
5862 5865 5867 5873 5873 5874 5873 5875 5877 5881 5880 5881 5886 5890 5894 5895 5894 5891 5888 5886 5885 5887 5884 5882 5880 5878 5876 5874 5872 5871 5868 5865
5857 5859 5865 5868 5867 5869 5869 5868 5871 5873 5874 5875 5877 5881 5886 5889 5887 5883 5878 5878 5880 5879 5878 5876 5874 5872 5870 5869 5867 5865 5862 5860
5852 5854 5857 5860 5863 5865 5869 5870 5867 5868 5870 5871 5872 5870 5873 5875 5874 5867 5864 5865 5869 5871 5871 5870 5866 5864 5864 5863 5861 5858 5857 5854
5847 5848 5850 5854 5858 5861 5864 5866 5867 5865 5864 5866 5870 5870 5865 5867 5869 5864 5828 5841 5859 5866 5866 5863 5860 5859 5858 5856 5853 5851 5849 5847
5841 5844 5847 5848 5851 5855 5856 5859 5858 5860 5862 5864 5866 5867 5866 5865 5865 5866 5862 5856 5858 5859 5858 5855 5854 5852 5850 5849 5846 5844 5841 5838
5834 5840 5839 5841 5844 5843 5846 5850 5851 5850 5851 5852 5855 5857 5861 5860 5853 5858 5851 5851 5850 5847 5848 5848 5846 5843 5840 5837 5835 5834 5831 5829
5827 5828 5829 5837 5839 5838 5842 5839 5840 5841 5841 5841 5844 5852 5851 5849 5848 5845 5845 5845 5845 5843 5841 5837 5835 5833 5830 5827 5825 5824 5822 5820
5816 5815 5820 5826 5828 5827 5827 5825 5829 5827 5821 5829 5834 5836 5837 5838 5839 5840 5839 5835 5829 5826 5824 5823 5822 5820 5820 5819 5816 5814 5812 5810
5806 5806 5811 5815 5816 5823 5822 5816 5819 5823 5824 5829 5830 5830 5830 5829 5828 5827 5826 5824 5822 5820 5818 5816 5813 5811 5810 5808 5807 5805 5803 5800
5805 5805 5806 5811 5816 5819 5816 5812 5817 5822 5826 5825 5824 5823 5820 5819 5819 5818 5818 5818 5816 5813 5810 5808 5806 5803 5801 5799 5797 5795 5793 5792